Dalaman, Turkey

6:48 AM +03 on May 30, 2017 (GMT +0300)
Dalaman

Weather History for LTBS - August, 2013

Change the Weather History Date:

Tuesday, August 20, 2013

  Actual Average Record
Temperature  
Mean Temperature 84 °F -  
Max Temperature 100 °F 85 °F 104 °F (2006)
Min Temperature 69 °F 65 °F 64 °F (1996)
Cooling Degree Days 20    
Growing Degree Days 34 (Base 50)    
Moisture  
Dew Point 64 °F    
Average Humidity 59    
Maximum Humidity 83    
Minimum Humidity 14    
Precipitation  
Precipitation 0.00 in - - ()
Sea Level Pressure  
Sea Level Pressure 29.74 in    
Wind  
Wind Speed 7 mph ()    
Max Wind Speed 16 mph    
Max Gust Speed -    
Visibility 6.2 miles    
Events      
Averages and records for this station are not official NWS values.
T = Trace of Precipitation, MM = Missing Value Source: Averaged Metar Reports

Daily Weather History Graph

Daily Weather History Graph

Search for Another Location

Airport or City:

Trip Planner

Search our weather history database for the weather conditions in past years. The results will help you decide how hot, cold, wet, or windy it might be!

Date:

Astronomy

Aug. 20, 2013 Rise Set
Actual Time 6:26 AM EEST 7:49 PM EEST
Civil Twilight 5:59 AM EEST 8:16 PM EEST
Nautical Twilight 5:26 AM EEST 8:49 PM EEST
Astronomical Twilight 4:52 AM EEST 9:23 PM EEST
Moon 7:09 PM EEST (8/20) 5:32 AM EEST (8/20)
Length of Visible Light 14h 17m
Length of Day
13h 23m
Waxing Gibbous, 99% of the Moon is Illuminated
Aug 20
Waxing Gibbous
Aug 21
Full
Aug 28
Last Quarter
Sep 5
New
Sep 12
First Quarter

Hourly Weather History & Observations

Time (EEST) Temp. Heat Index Dew Point Humidity Pressure Visibility Wind Dir Wind Speed Gust Speed Precip Events Conditions
12:20 AM 75.2 °F - 69.8 °F 83% 29.74 in - ENE 3.5 mph - N/A   Clear
12:50 AM 73.4 °F - 68.0 °F 83% 29.74 in - Variable 2.3 mph - N/A   Clear
1:20 AM 73.4 °F - 68.0 °F 83% 29.74 in - NE 3.5 mph - N/A   Clear
1:50 AM 71.6 °F - 66.2 °F 83% 29.74 in - ENE 4.6 mph - N/A   Clear
2:20 AM 73.4 °F - 66.2 °F 78% 29.74 in - NE 4.6 mph - N/A   Clear
2:50 AM 71.6 °F - 66.2 °F 83% 29.74 in - East 6.9 mph - N/A   Clear
3:00 AM 71 °F - 66 °F 79% 29.75 in 6 mi East 6.9 mph - -  
3:20 AM 75.2 °F - 64.4 °F 69% 29.74 in - East 6.9 mph - N/A   Clear
3:50 AM 73.4 °F - 62.6 °F 69% 29.74 in - ENE 6.9 mph - N/A   Clear
4:20 AM 71.6 °F - 62.6 °F 73% 29.71 in - ENE 4.6 mph - N/A   Clear
4:50 AM 69.8 °F - 60.8 °F 73% 29.74 in - NNE 6.9 mph - N/A   Clear
5:20 AM 71.6 °F - 59.0 °F 64% 29.74 in - NE 5.8 mph - N/A   Clear
5:50 AM 69.8 °F - 60.8 °F 73% 29.74 in - ENE 5.8 mph - N/A   Clear
6:20 AM 69.8 °F - 59.0 °F 68% 29.74 in - NNE 5.8 mph - N/A   Clear
6:50 AM 71.6 °F - 57.2 °F 60% 29.74 in - ENE 5.8 mph - N/A   Clear
7:20 AM 75.2 °F - 55.4 °F 50% 29.74 in - East 6.9 mph - N/A   Clear
7:50 AM 78.8 °F - 57.2 °F 47% 29.74 in - ENE 4.6 mph - N/A   Clear
8:20 AM 82.4 °F 82.0 °F 57.2 °F 42% 29.77 in - NE 4.6 mph - N/A   Clear
8:50 AM 89.6 °F - 50.0 °F 26% 29.74 in - North 10.4 mph - N/A   Clear
9:00 AM 89 °F - 49 °F 16% 29.77 in 6 mi North 10.4 mph - -  
9:20 AM 91.4 °F - 50.0 °F 24% 29.77 in - North 11.5 mph - N/A   Clear
9:50 AM 93.2 °F - 48.2 °F 21% 29.77 in - North 12.7 mph - N/A   Clear
10:20 AM 95.0 °F - 50.0 °F 22% 29.77 in - North 12.7 mph - N/A   Clear
10:50 AM 96.8 °F - 48.2 °F 19% 29.74 in - North 10.4 mph - N/A   Clear
11:20 AM 98.6 °F - 42.8 °F 15% 29.74 in 6.2 mi Variable 4.6 mph - N/A   Partly Cloudy
11:50 AM 98.6 °F - 48.2 °F 18% 29.74 in 6.2 mi Variable 4.6 mph - N/A   Partly Cloudy
12:20 PM 100.4 °F - 42.8 °F 14% 29.74 in 6.2 mi SSW 11.5 mph - N/A   Partly Cloudy
12:50 PM 93.2 °F 94.9 °F 64.4 °F 38% 29.74 in 6.2 mi WSW 16.1 mph - N/A   Partly Cloudy
1:20 PM 91.4 °F 95.4 °F 68.0 °F 46% 29.74 in 6.2 mi WSW 13.8 mph - N/A   Partly Cloudy
1:50 PM 89.6 °F 99.8 °F 75.2 °F 62% 29.74 in 6.2 mi South 11.5 mph - N/A   Partly Cloudy
2:20 PM 87.8 °F 95.6 °F 73.4 °F 62% 29.74 in 6.2 mi South 11.5 mph - N/A   Partly Cloudy
2:50 PM 93.2 °F 96.2 °F 66.2 °F 41% 29.71 in 6.2 mi WSW 15.0 mph - N/A   Partly Cloudy
3:00 PM 93 °F - 64 °F 29% 29.74 in 6 mi WSW 15.0 mph - -   Scattered Clouds
3:20 PM 87.8 °F 93.8 °F 71.6 °F 58% 29.71 in 6.2 mi South 11.5 mph - N/A   Partly Cloudy
3:50 PM 89.6 °F 98.2 °F 73.4 °F 59% 29.71 in 6.2 mi SSW 12.7 mph - N/A   Partly Cloudy
4:20 PM 91.4 °F 100.1 °F 73.4 °F 55% 29.71 in 6.2 mi SSW 13.8 mph - N/A   Partly Cloudy
4:50 PM 87.8 °F 93.8 °F 71.6 °F 58% 29.71 in 6.2 mi South 11.5 mph - N/A   Partly Cloudy
5:20 PM 86.0 °F 93.4 °F 73.4 °F 66% 29.71 in 6.2 mi SSW 12.7 mph - N/A   Partly Cloudy
5:50 PM 86.0 °F 93.4 °F 73.4 °F 66% 29.71 in 6.2 mi South 11.5 mph - N/A   Partly Cloudy
6:20 PM 84.2 °F 90.9 °F 73.4 °F 70% 29.71 in 6.2 mi SSW 16.1 mph - N/A   Partly Cloudy
6:50 PM 84.2 °F 90.9 °F 73.4 °F 70% 29.71 in 6.2 mi South 10.4 mph - N/A   Partly Cloudy
7:20 PM 84.2 °F 90.9 °F 73.4 °F 70% 29.71 in 6.2 mi South 9.2 mph - N/A   Partly Cloudy
7:50 PM 82.4 °F 87.2 °F 71.6 °F 70% 29.74 in - South 9.2 mph - N/A   Clear
8:20 PM 82.4 °F 87.2 °F 71.6 °F 70% 29.74 in - South 5.8 mph - N/A   Clear
8:50 PM 80.6 °F 84.6 °F 71.6 °F 74% 29.74 in - SSW 5.8 mph - N/A   Clear
9:00 PM 81 °F - 72 °F 68% 29.76 in 6 mi SSW 5.8 mph - -  
9:20 PM 80.6 °F 85.4 °F 73.4 °F 79% 29.74 in - SSW 4.6 mph - N/A   Clear
9:50 PM 80.6 °F 85.4 °F 73.4 °F 79% 29.74 in - SSW 4.6 mph - N/A   Clear
10:20 PM 80.6 °F 85.4 °F 73.4 °F 79% 29.74 in - SSW 4.6 mph - N/A   Clear
10:50 PM 78.8 °F - 73.4 °F 83% 29.77 in - SSW 3.5 mph - N/A   Clear
11:20 PM 78.8 °F - 73.4 °F 83% 29.77 in - NNW 2.3 mph - N/A   Clear
11:50 PM 75.2 °F - 69.8 °F 83% 29.77 in - NE 3.5 mph - N/A   Clear